星链-3456 (STARLINK-3456 )

导读

STARLINK-3456是美国太空探索技术公司(SpaceX)星链星座计划中的卫星,于2022年2月21日发射升空,星链项目旨在构建覆盖全球的低轨卫星互联网星座,为全球范围内用户提供高速宽带互联网服务,该卫星入轨后承担相应的通信覆盖任务,属于星链大规模组网的组成部分,助力星座服务能力完善。

基本信息
目录编号:
51759
目录名称:
STARLINK-3456
国际标识:
2022-016AX
轨道中心:
EARTH
卫星名称:
星链-3456
卫星全名:
星链-3456 (STARLINK-3456 )
卫星状态:
在轨 (已飞行1664 天)
发射日期:
2022-02-21 UTC
国别 :
美国 (US)
星等 :
--
该卫星已列入 空间交会检测服务 Space Conjunction Data Service (SCDS) ,当前飞行风险评估等级: 高风险
轨道信息
数据来源 国际轨道数据
星历时间: 2026-09-12T03:45:08+0800
10小时前
查看轨道信息
半长轴: 6840.809km
偏心率: 0.0001275
轨道倾角: 53.160°
近地点辐角 98.477°
升交点赤经 179.934°
平近点角 261.637°
近地点: 461.799km
远地点: 463.545km
周期: 93.847分钟
每日圈数: 15.344108
详细信息
固有亮度:
5
最大亮度:
2.5
卫星平台:
Starlink v1.5
覆盖范围:
全球
运营商:
太空探索技术公司
运营商所在国:
美国
制造商(研发单位):
太空探索技术公司
制造商所在国:
美国
使用方式:
暂无
卫星简介
星链(Starlink)计划是由太空探索技术公司(SpaceX)提出的一个巨型低轨卫星互联网星座项目,计划在2019年至2024年间在太空搭建由约1.2万颗卫星组成的“星链”网络,其中1584颗将部署在地球上空550千米处的近地轨道,并从2020年开始工作。该卫星仍在工作。
2D轨道图
3D轨道图
轨道高度分析图
轨道倾角分析图
轨道综合分析图
查看轨道综合分析图
与全量物体交会距离演化趋势
与全量物体交会风险概率演化趋势